AGJ812 LGIR-LGKF

Flight info

Callsign AGJ812
Flight time 1h 0m
Altitude 30000
Route EPALO UM749 MIL UB34 ARA
Aircraft B463/M-SDFGIRWY/LB1

Departure

Time 2026-04-20 16:53
Airport Heraklion International Nikos Kazantzakis Airport (LGIR)

Arrival

Time 2026-04-20 17:53
Airport Kefallinia Airport (LGKF)
Time Latitude Longitude Altitude Speed Heading
2026-04-20 16:20 35.33812 25.17674 91 ft 0 kts 275°
2026-04-20 16:29 35.33812 25.17675 91 ft 0 kts 275°
2026-04-20 16:40 35.33812 25.17676 94 ft 0 kts 275°
2026-04-20 16:49 35.33812 25.17673 91 ft 1 kts 275°
2026-04-20 16:50 35.33814 25.17654 93 ft 5 kts 275°
2026-04-20 16:50 35.33854 25.17622 91 ft 11 kts
2026-04-20 16:50 35.33900 25.17677 91 ft 12 kts 94°
2026-04-20 16:50 35.33891 25.17796 91 ft 17 kts 95°
2026-04-20 16:51 35.33879 25.17963 91 ft 22 kts 95°
2026-04-20 16:51 35.33866 25.18160 92 ft 24 kts 95°
2026-04-20 16:51 35.33852 25.18364 91 ft 25 kts 95°
2026-04-20 16:51 35.33837 25.18575 91 ft 25 kts 95°
2026-04-20 16:52 35.33823 25.18779 91 ft 23 kts 95°
2026-04-20 16:52 35.33826 25.18941 91 ft 17 kts 60°
2026-04-20 16:52 35.33891 25.19035 89 ft 11 kts 351°
2026-04-20 16:52 35.33909 25.18999 89 ft 0 kts 274°
2026-04-20 16:53 35.33924 25.18774 89 ft 64 kts 274°
2026-04-20 16:53 35.33981 25.17936 96 ft 129 kts 274°
2026-04-20 16:53 35.34054 25.16754 445 ft 149 kts 274°
2026-04-20 16:53 35.34189 25.15450 983 ft 155 kts 292°
2026-04-20 16:54 35.34918 25.14492 1567 ft 160 kts 334°
2026-04-20 16:54 35.36007 25.14153 2114 ft 165 kts 348°
2026-04-20 16:54 35.37150 25.13884 2668 ft 166 kts 347°
2026-04-20 16:54 35.38254 25.13549 3227 ft 165 kts 346°
2026-04-20 16:55 35.39376 25.13149 3683 ft 173 kts 344°
2026-04-20 16:55 35.40613 25.12673 4035 ft 205 kts 344°
2026-04-20 16:55 35.42084 25.12096 4519 ft 233 kts 343°
2026-04-20 16:55 35.43690 25.11470 5216 ft 246 kts 343°
2026-04-20 16:56 35.45277 25.10856 6500 ft 239 kts 343°
2026-04-20 16:56 35.46882 25.10224 7447 ft 242 kts 343°
2026-04-20 16:56 35.48480 25.09612 8392 ft 244 kts 343°
2026-04-20 16:56 35.50129 25.08975 9332 ft 246 kts 343°
2026-04-20 16:57 35.51763 25.08361 10202 ft 248 kts 343°
2026-04-20 16:57 35.53435 25.07724 10969 ft 252 kts 343°
2026-04-20 16:57 35.55118 25.07085 11711 ft 257 kts 343°
2026-04-20 16:57 35.56825 25.06449 12450 ft 260 kts 342°
2026-04-20 16:58 35.58578 25.05784 13190 ft 264 kts 342°
2026-04-20 16:58 35.60352 25.05118 13894 ft 267 kts 342°
2026-04-20 16:58 35.62134 25.04455 14521 ft 269 kts 342°
2026-04-20 16:58 35.63940 25.03768 15153 ft 271 kts 341°
2026-04-20 16:59 35.65734 25.03082 15756 ft 272 kts 341°
2026-04-20 16:59 35.67553 25.02390 16340 ft 274 kts 341°
2026-04-20 16:59 35.69364 25.01707 16894 ft 276 kts 341°
2026-04-20 16:59 35.71180 25.01029 17428 ft 277 kts 341°
2026-04-20 17:00 35.74857 24.99463 18421 ft 281 kts 338°
2026-04-20 17:00 35.76669 24.98594 18845 ft 281 kts 337°
2026-04-20 17:00 35.78499 24.97707 19273 ft 282 kts 338°
2026-04-20 17:01 35.80328 24.96835 19673 ft 283 kts 338°
2026-04-20 17:01 35.82176 24.95957 20055 ft 284 kts 338°
2026-04-20 17:01 35.84034 24.95078 20430 ft 285 kts 338°
2026-04-20 17:01 35.85869 24.94211 20779 ft 286 kts 338°
2026-04-20 17:02 35.87729 24.93331 21135 ft 287 kts 338°
2026-04-20 17:02 35.89597 24.92449 21466 ft 288 kts 338°
2026-04-20 17:02 35.91456 24.91572 21781 ft 289 kts 338°
2026-04-20 17:02 35.93345 24.90681 22091 ft 290 kts 338°
2026-04-20 17:03 35.95239 24.89790 22369 ft 291 kts 338°
2026-04-20 17:03 35.97142 24.88894 22665 ft 292 kts 338°
2026-04-20 17:03 35.99024 24.88009 22939 ft 293 kts 338°
2026-04-20 17:03 36.00933 24.87111 23202 ft 294 kts 338°
2026-04-20 17:04 36.02864 24.86206 23463 ft 295 kts 338°
2026-04-20 17:04 36.04775 24.85309 23705 ft 296 kts 338°
2026-04-20 17:04 36.06698 24.84407 23912 ft 297 kts 338°
2026-04-20 17:04 36.08640 24.83495 24122 ft 298 kts 338°
2026-04-20 17:05 36.10596 24.82579 24329 ft 299 kts 338°
2026-04-20 17:05 36.12530 24.81674 24523 ft 300 kts 338°
2026-04-20 17:05 36.14495 24.80739 24737 ft 301 kts 338°
2026-04-20 17:05 36.16464 24.79802 24941 ft 302 kts 338°
2026-04-20 17:06 36.18431 24.78867 25132 ft 303 kts 338°
2026-04-20 17:06 36.20386 24.77933 25330 ft 304 kts 338°
2026-04-20 17:06 36.22361 24.77001 25517 ft 305 kts 338°
2026-04-20 17:06 36.24363 24.76046 25719 ft 306 kts 338°
2026-04-20 17:07 36.26344 24.75098 25902 ft 307 kts 338°
2026-04-20 17:07 36.28358 24.74143 26087 ft 309 kts 338°
2026-04-20 17:07 36.30370 24.73187 26264 ft 310 kts 338°
2026-04-20 17:07 36.32378 24.72231 26445 ft 311 kts 338°
2026-04-20 17:08 36.34393 24.71267 26629 ft 312 kts 338°
2026-04-20 17:08 36.36422 24.70297 26794 ft 313 kts 338°
2026-04-20 17:08 36.38445 24.69334 26972 ft 314 kts 338°
2026-04-20 17:08 36.40489 24.68357 27145 ft 314 kts 338°
2026-04-20 17:09 36.42528 24.67377 27316 ft 315 kts 338°
2026-04-20 17:09 36.44562 24.66401 27623 ft 311 kts 338°
2026-04-20 17:09 36.46558 24.65442 28137 ft 301 kts 338°
2026-04-20 17:09 36.48500 24.64506 28547 ft 294 kts 338°
2026-04-20 17:10 36.50380 24.63603 28903 ft 288 kts 338°
2026-04-20 17:10 36.52214 24.62721 29211 ft 283 kts 338°
2026-04-20 17:10 36.54048 24.61841 29486 ft 279 kts 338°
2026-04-20 17:10 36.55834 24.60984 29714 ft 275 kts 338°
2026-04-20 17:11 36.57632 24.60124 29926 ft 273 kts 338°
2026-04-20 17:11 36.59388 24.59287 30099 ft 271 kts 338°
2026-04-20 17:11 36.61142 24.58450 30166 ft 273 kts 338°
2026-04-20 17:11 36.62957 24.57583 30049 ft 280 kts 338°
2026-04-20 17:12 36.64801 24.56702 30031 ft 284 kts 338°
2026-04-20 17:12 36.66643 24.55821 30028 ft 288 kts 338°
2026-04-20 17:12 36.68512 24.54924 30023 ft 292 kts 338°
2026-04-20 17:12 36.70433 24.53998 30023 ft 295 kts 337°
2026-04-20 17:13 36.72349 24.53074 30032 ft 299 kts 338°
2026-04-20 17:13 36.74267 24.52014 30024 ft 302 kts 325°
2026-04-20 17:13 36.75791 24.50188 30051 ft 307 kts 312°
2026-04-20 17:14 36.78377 24.45868 30025 ft 317 kts 308°
2026-04-20 17:14 36.80909 24.41272 30017 ft 325 kts 307°
2026-04-20 17:15 36.83490 24.36578 30010 ft 333 kts 307°
2026-04-20 17:15 36.86192 24.31754 30007 ft 341 kts 307°
2026-04-20 17:16 36.88942 24.26879 30005 ft 349 kts 307°
2026-04-20 17:16 36.91797 24.21850 30003 ft 357 kts 307°
2026-04-20 17:17 36.94691 24.16774 29999 ft 361 kts 308°
2026-04-20 17:17 36.97607 24.11674 29995 ft 362 kts 307°
2026-04-20 17:18 37.00510 24.06496 29989 ft 363 kts 307°
2026-04-20 17:18 37.03420 24.01324 29987 ft 363 kts 307°
2026-04-20 17:19 37.06311 23.96174 29984 ft 364 kts 307°
2026-04-20 17:19 37.09229 23.90970 29978 ft 364 kts 307°
2026-04-20 17:20 37.12134 23.85779 29968 ft 365 kts 306°
2026-04-20 17:20 37.15042 23.80570 29972 ft 365 kts 307°
2026-04-20 17:21 37.17976 23.75361 29976 ft 365 kts 307°
2026-04-20 17:21 37.20901 23.70153 29978 ft 365 kts 307°
2026-04-20 17:22 37.23823 23.64958 29975 ft 365 kts 307°
2026-04-20 17:22 37.26739 23.59725 29978 ft 366 kts 306°
2026-04-20 17:23 37.29651 23.54478 29977 ft 366 kts 306°
2026-04-20 17:23 37.32556 23.49243 29976 ft 366 kts 306°
2026-04-20 17:24 37.35466 23.43969 29984 ft 367 kts 306°
2026-04-20 17:24 37.38372 23.38713 29975 ft 367 kts 306°
2026-04-20 17:25 37.41291 23.33422 29978 ft 368 kts 306°
2026-04-20 17:25 37.44204 23.28151 29986 ft 368 kts 306°
2026-04-20 17:26 37.47102 23.22848 29947 ft 368 kts 306°
2026-04-20 17:26 37.49583 23.17180 29967 ft 369 kts 296°
2026-04-20 17:27 37.51632 23.11284 29987 ft 370 kts 296°
2026-04-20 17:27 37.53701 23.05313 29985 ft 370 kts 296°
2026-04-20 17:28 37.55817 22.99409 29983 ft 371 kts 296°
2026-04-20 17:28 37.57962 22.93479 29987 ft 371 kts 297°
2026-04-20 17:29 37.60097 22.87588 29982 ft 371 kts 297°
2026-04-20 17:29 37.61873 22.82646 29992 ft 372 kts 296°
2026-04-20 17:30 37.64012 22.76656 29997 ft 372 kts 296°
2026-04-20 17:30 37.66140 22.70719 30002 ft 374 kts 296°
2026-04-20 17:31 37.68278 22.64702 30002 ft 375 kts 296°
2026-04-20 17:31 37.70418 22.58712 30007 ft 376 kts 297°
2026-04-20 17:32 37.72690 22.52769 30018 ft 378 kts 299°
2026-04-20 17:32 37.75073 22.46828 30020 ft 379 kts 298°
2026-04-20 17:33 37.77456 22.40861 30016 ft 379 kts 299°
2026-04-20 17:33 37.79835 22.34902 30005 ft 379 kts 299°
2026-04-20 17:34 37.82191 22.28979 30012 ft 378 kts 299°
2026-04-20 17:34 37.84559 22.23036 30034 ft 377 kts 299°
2026-04-20 17:35 37.86916 22.17112 30037 ft 377 kts 299°
2026-04-20 17:35 37.89267 22.11203 30048 ft 377 kts 298°
2026-04-20 17:36 37.91618 22.05270 30035 ft 377 kts 298°
2026-04-20 17:36 37.93946 21.99326 30055 ft 377 kts 298°
2026-04-20 17:37 37.96276 21.93382 29803 ft 372 kts 298°
2026-04-20 17:37 37.97426 21.90463 28995 ft 374 kts 298°
2026-04-20 17:37 37.98578 21.87498 28206 ft 374 kts 298°
2026-04-20 17:37 37.99725 21.84526 27440 ft 373 kts 298°
2026-04-20 17:38 38.00867 21.81580 26731 ft 371 kts 298°
2026-04-20 17:38 38.02016 21.78655 26059 ft 369 kts 298°
2026-04-20 17:38 38.03147 21.75756 25414 ft 366 kts 298°
2026-04-20 17:38 38.04260 21.72894 24791 ft 363 kts 298°
2026-04-20 17:39 38.05374 21.70030 24171 ft 360 kts 298°
2026-04-20 17:39 38.06478 21.67195 23571 ft 357 kts 297°
2026-04-20 17:39 38.07566 21.64411 22878 ft 353 kts 298°
2026-04-20 17:39 38.08657 21.61622 22202 ft 350 kts 297°
2026-04-20 17:40 38.09742 21.58855 21541 ft 346 kts 297°
2026-04-20 17:40 38.10802 21.56151 20917 ft 343 kts 297°
2026-04-20 17:40 38.11847 21.53437 20303 ft 339 kts 297°
2026-04-20 17:40 38.12861 21.50779 19709 ft 336 kts 297°
2026-04-20 17:41 38.13888 21.48114 19124 ft 332 kts 297°
2026-04-20 17:41 38.14888 21.45505 18569 ft 329 kts 296°
2026-04-20 17:41 38.15569 21.42748 17931 ft 329 kts 278°
2026-04-20 17:41 38.15669 21.39838 17303 ft 327 kts 273°
2026-04-20 17:42 38.15643 21.36952 16723 ft 325 kts 271°
2026-04-20 17:42 38.15548 21.34117 16133 ft 322 kts 270°
2026-04-20 17:42 38.15409 21.31289 15557 ft 319 kts 269°
2026-04-20 17:42 38.15255 21.28474 14990 ft 316 kts 269°
2026-04-20 17:43 38.15095 21.25729 14455 ft 314 kts 269°
2026-04-20 17:43 38.14946 21.22966 13912 ft 311 kts 269°
2026-04-20 17:43 38.14815 21.20227 13336 ft 309 kts 269°
2026-04-20 17:43 38.14690 21.17525 12761 ft 307 kts 269°
2026-04-20 17:44 38.14560 21.14823 12206 ft 305 kts 269°
2026-04-20 17:44 38.14414 21.12143 11647 ft 303 kts 269°
2026-04-20 17:44 38.14285 21.09469 11112 ft 302 kts 269°
2026-04-20 17:44 38.14153 21.06805 10591 ft 300 kts 269°
2026-04-20 17:45 38.14020 21.04236 10474 ft 284 kts 269°
2026-04-20 17:45 38.13905 21.01799 10494 ft 265 kts 269°
2026-04-20 17:45 38.13799 20.99504 10171 ft 262 kts 269°
2026-04-20 17:45 38.13689 20.97164 9677 ft 265 kts 269°
2026-04-20 17:46 38.13649 20.96403 9532 ft 266 kts 269°
2026-04-20 17:46 38.13551 20.94532 9154 ft 267 kts 269°
2026-04-20 17:46 38.13432 20.92185 8706 ft 267 kts 269°
2026-04-20 17:46 38.13316 20.89826 8266 ft 268 kts 268°
2026-04-20 17:47 38.13203 20.87442 7839 ft 267 kts 268°
2026-04-20 17:47 38.13097 20.85154 7834 ft 250 kts 269°
2026-04-20 17:47 38.12994 20.82992 7735 ft 241 kts 269°
2026-04-20 17:47 38.12891 20.80896 7476 ft 238 kts 268°
2026-04-20 17:48 38.12776 20.78791 7237 ft 236 kts 268°
2026-04-20 17:48 38.12664 20.76725 7012 ft 234 kts 268°
2026-04-20 17:48 38.12555 20.74679 6782 ft 233 kts 268°
2026-04-20 17:48 38.12443 20.72638 6555 ft 232 kts 268°
2026-04-20 17:49 38.12338 20.70602 6324 ft 231 kts 268°
2026-04-20 17:49 38.12234 20.68573 6176 ft 231 kts 267°
2026-04-20 17:49 38.12133 20.66521 5960 ft 230 kts 268°
2026-04-20 17:49 38.12031 20.64510 5732 ft 230 kts 267°
2026-04-20 17:50 38.11660 20.62586 5274 ft 218 kts 245°
2026-04-20 17:50 38.10767 20.61160 4874 ft 202 kts 216°
2026-04-20 17:50 38.09611 20.60163 3870 ft 200 kts 220°
2026-04-20 17:50 38.08694 20.58957 3143 ft 180 kts 236°
2026-04-20 17:51 38.08101 20.57634 2433 ft 166 kts 248°
2026-04-20 17:51 38.07807 20.56288 1856 ft 152 kts 259°
2026-04-20 17:51 38.07713 20.55044 1573 ft 130 kts 272°
2026-04-20 17:51 38.07910 20.53957 1317 ft 126 kts 293°
2026-04-20 17:52 38.08402 20.53063 1116 ft 126 kts 316°
2026-04-20 17:52 38.09152 20.52427 786 ft 131 kts 327°
2026-04-20 17:52 38.09917 20.51794 433 ft 131 kts 326°
2026-04-20 17:52 38.10669 20.51163 187 ft 126 kts 327°
2026-04-20 17:53 38.11376 20.50575 69 ft 116 kts 326°
2026-04-20 17:53 38.11972 20.50070 61 ft 91 kts 326°
2026-04-20 17:53 38.12449 20.49670 56 ft 74 kts 326°
2026-04-20 17:53 38.12732 20.49432 45 ft 28 kts 326°
2026-04-20 17:54 38.12832 20.49341 41 ft 13 kts 307°
2026-04-20 17:54 38.12885 20.49273 39 ft 11 kts 26°
2026-04-20 17:54 38.12846 20.49342 41 ft 14 kts 147°
2026-04-20 17:54 38.12757 20.49416 44 ft 17 kts 147°
2026-04-20 17:55 38.12653 20.49501 48 ft 19 kts 147°
2026-04-20 17:55 38.12541 20.49592 52 ft 19 kts 147°
2026-04-20 17:55 38.12437 20.49679 56 ft 17 kts 146°
2026-04-20 17:55 38.12344 20.49760 60 ft 15 kts 146°
2026-04-20 17:56 38.12252 20.49837 59 ft 17 kts 146°
2026-04-20 17:56 38.12145 20.49926 62 ft 20 kts 146°
2026-04-20 17:56 38.12022 20.50029 66 ft 22 kts 146°
2026-04-20 17:56 38.11906 20.50129 65 ft 14 kts 137°
2026-04-20 17:57 38.11896 20.50241 64 ft 13 kts 76°
2026-04-20 17:57 38.11939 20.50332 68 ft 11 kts 56°
2026-04-20 17:57 38.11953 20.50359 61 ft 0 kts 56°